STARLINK-31479, 59316

Orbit data source: Space-Track

STARLINK-31479, 59316 is a payload satellite owned by SpaceX/Seattle (US) in LEO that was launched on Sun, 24 Mar 2024 UTC via an FALCON 9 launch vehicle from the Air Force Eastern Test Range (AFETR). Payload-class satellites include a variety of spacecraft equipped with specific instruments for various scientific and technological missions. These include communications satellites like Starlink; space stations such as the ISS; scientific satellites like the Hubble; Earth observation satellites from companies like Planet Labs, Umbra, and HawkEye 360; GPS; miniature CubeSats for education and research; and military/defense satellites.

Loading next visibility...
Identifier
59316, 2024-056W
Orbit
LEO
Country
Flag of USUS
Related business
Manufacturer
SpaceX/Seattle
Mission
Operational Commercial Communications
Bus & Motor
STARLINK V2M, Unknown motor
Mass
730 kg wet, ~700 kg dry
Launch date (UTC)
2024-03-24 (2 years ago)
Launch vehicle
FALCON 9
Launch site
Air Force Eastern Test Range (AFETR)
Object type
Payload
Rocket body
Debris
Shape & HBR
Box + 2 Pan, 17.7 m
Radar Cross Section
33.884 m², Large (>1 m²)

Expand to show TLE details & history
Last TLE update: 2 days ago

TLE from 2 days ago
0 STARLINK-31479
1 59316U 24056W   26170.99613420  .00001284  00000-0  56154-4 0  9991
2 59316  43.0055  17.0047 0001313 265.0731  94.9971 15.27585808126753
Epoch: 2026-06-19T23:54Z
TLE epoch observation values (Epoch: 2026-06-19T23:54:25.994Z)
Latitude
-0.00002°
Longitude
110.17926°
Altitude
482.886 km
Speed
7.626 km/s
True Right ascension
01h 08m 01s
True Declination
0° 00' 00"
Sunlit
Object was in daylight at epoch
Visualization orbit readout
Latitude
Unknown
Longitude
Unknown
Altitude
Unknown
Speed
Unknown
Apparent Right ascension
Unknown
Apparent Declination
Unknown
Sunlit
N/A
Visualization observer readout
Local Sidereal Time
21:31:43
Azimuth
Unknown
Elevation
Unknown
Doppler factor
Unknown
Orbital elements
Apogee altitude
485.877 km
Perigee altitude
484.075 km
Semi-major axis
6,863.113 km
Eccentricity
0.00013
Inclination
43.0055°
RAAN
17.0047°
Arg. of periapsis
265.0731°
True anomaly
95.01209°
Mean anomaly
94.9971°
Eccentric anomaly
95.00459°
Mean motion
3.81735 °/min
Orbital period
94.31 mins
BSTAR
0.000056154
Loading maneuver chart data...
Computing Atmospheric mass density...
Loading historical data...
Loading historical data...
Loading historical data...
Loading historical data...
Loading historical data...
Loading historical data...
Loading historical data...

Documentation

Showing up to 5 results
|